SCP
-0 -0 -1 -1 -1 -1 -0 -0 -0 -0 -0 -0 -0 -0 -0 0 0 0 0 0 0 0 0 0 0 0 0 0 0 0 0 0
-0 -0 -1 -1 -1 -1 -1 -0 -0 -0 -0 -0 -0 -0 -0 0 0 0 0 0 0 0 0 0 0 0 0 0 0 0 0 0
0 0 -0 -0 -1 -1 -1 -0 -0 -0 -0 -0 -0 -0 -0 0 0 0 0 0 0 0 0 0 0 0 0 0 0 0 0 0
0 0 0 -0 -0 -0 -1 -1 -1 -1 -0 -0 -0 -0 -0 0 0 0 0 0 0 0 0 0 0 0 0 0 0 0 0 0
0 0 0 0 -0 -0 -0 -0 -0 -0 -0 -0 -0 -0 -0 0 0 0 0 0 0 0 0 0 0 0 0 0 0 0 0 0
0 0 0 -0 0 -0 -0 0 0 -0 -0 -0 -0 -0 -0 -0 -0 -0 0 0 0 0 0 -0 -0 -0 0 0 0 0 0 0
0 0 0 -0 -0 0 0 -0 -0 -0 -0 -0 -0 -0 -0 -0 -0 -0 0 0 0 0 0 0 0 0 0 0 0 0 0 0
0 0 0 0 -0 -0 -0 -0 0 0 0 -0 -0 -0 0 0 0 0 0 0 0 0 0 0 0 0 0 0 0 0 0 0
0 -0 0 0 0 -0 0 0 0 0 0 0 0 0 0 0 0 0 0 0 0 0 0 0 0 0 0 0 0 0 0 0
0 0 -0 0 0 0 0 0 0 0 0 0 0 0 0 0 0 0 0 0 0 0 0 0 0 0 0 0 0 0 0 0
-0 -0 -0 0 0 0 0 1 1 1 0 0 0 0 0 0 0 0 0 -0 -0 0 0 0 0 0 0 0 0 0 0 1
0 -0 -0 -0 -0 0 0 0 1 1 1 1 1 0 0 0 -0 0 0 0 0 -0 0 0 0 0 0 1 1 1 1 1
0 0 -0 -0 -0 -0 0 0 0 1 0 1 0 0 0 0 0 0 0 0 0 0 0 0 0 0 0 1 1 1 1 1
-0 -0 -0 -0 -0 -0 -0 -0 0 0 0 0 0 0 0 0 0 0 0 0 0 0 -0 -0 0 0 -0 0 1 1 1 1
-0 -0 -0 -0 -0 -0 -1 -0 -0 -0 -0 0 0 0 0 0 0 0 0 -0 -0 -0 -0 -0 -0 -0 0 1 1 1 1 1
-0 -0 -0 -0 -0 -0 -0 -1 -1 -0 -0 0 0 0 0 -0 -0 -0 -0 -0 -0 -0 -0 0 -0 -0 -0 0 0 1 0 0
-0 -0 -0 -0 -0 -0 -0 -1 -1 -0 -0 0 0 0 0 0 -0 -0 -0 -0 0 0 0 0 0 0 0 0 0 1 1 1
-0 -0 -0 -0 -0 -0 -0 -0 -0 -0 -0 0 0 0 0 0 0 0 -0 0 0 0 -0 0 0 0 0 0 -0 0 -0 -0
-0 -0 -0 -0 -0 -0 -0 0 0 -0 -0 0 0 0 0 0 0 0 0 0 0 0 0 0 0 0 0 0 0 0 0 0
Wind_Speed_500mb
23 36 42 41 35 31 29 29 29 31 34 35 38 40 40 38 35 34 35 36 37 37 37 35 34 33 33 34 35 34 34 35
20 34 41 40 37 32 30 27 26 26 26 28 31 33 34 34 34 34 35 35 35 35 37 37 37 37 36 36 36 37 38 39
15 28 36 40 39 34 30 28 27 25 25 25 27 28 30 32 33 34 35 34 34 34 35 36 37 38 39 40 40 39 39 42
11 18 28 38 41 36 34 32 31 30 29 29 30 32 32 34 36 36 36 35 35 36 37 38 39 40 41 42 42 41 42 43
13 14 21 32 41 43 39 37 36 34 34 33 34 35 35 37 38 38 39 40 40 39 39 38 37 37 41 43 45 45 45 46
15 15 20 28 37 43 45 43 41 40 39 37 38 39 39 42 42 43 44 44 43 42 41 39 37 36 36 39 44 47 49 52
10 15 18 24 33 41 45 46 45 45 44 44 42 43 42 44 42 41 43 42 42 43 43 44 43 43 42 41 37 45 51 51
18 25 27 27 29 34 41 45 44 28 31 33 38 40 38 36 35 35 33 37 42 45 47 44 47 47 47 44 43 42 42 43
31 23 26 36 39 36 37 38 43 47 44 42 41 43 43 45 46 44 41 36 42 43 47 49 44 48 51 50 48 46 45 46
53 48 41 29 29 41 40 40 41 46 51 51 51 51 50 51 52 53 50 51 50 54 59 60 57 58 55 54 51 50 50 52
61 69 54 24 21 21 32 43 44 41 45 53 54 53 52 50 53 56 58 57 59 60 59 57 60 61 58 54 57 57 54 52
65 68 70 72 33 25 33 36 41 45 40 61 60 58 47 47 57 60 61 72 81 77 65 65 66 64 62 61 62 60 58 55
66 75 70 59 38 31 26 23 28 36 48 49 45 64 69 71 73 77 74 77 90 88 63 67 65 71 70 68 61 54 55 56
68 71 76 71 64 65 47 29 20 26 21 32 46 51 60 60 57 71 69 79 83 84 80 83 71 64 66 64 62 55 54 51
66 68 65 65 66 64 62 53 39 21 17 25 39 55 63 65 65 73 79 71 69 72 85 80 63 72 60 57 55 59 64 56
61 62 61 60 59 58 57 52 46 37 31 31 40 45 37 50 65 73 66 65 51 58 70 63 66 57 60 56 66 57 65 70
53 53 55 56 55 56 58 56 48 41 36 32 38 39 37 38 46 53 55 57 60 58 58 67 53 37 42 57 55 55 46 42
51 52 55 55 56 56 57 55 55 47 43 45 51 46 46 38 32 36 46 52 56 57 53 45 43 53 43 47 55 58 22 28
44 42 44 46 47 46 44 43 48 54 55 61 58 55 50 49 47 41 39 43 44 44 50 49 42 54 63 71 62 66 65 40
Wind_Direction_500mb
191 194 192 189 186 186 182 179 179 184 187 189 192 194 198 201 199 198 199 201 205 205 208 210 212 213 214 218 224 227 226 222
187 193 192 192 192 195 194 190 189 189 191 194 196 198 199 202 202 203 206 208 212 215 218 221 222 224 226 227 230 232 233 229
202 191 196 196 198 202 204 203 201 205 206 206 209 210 211 212 213 213 215 217 220 224 229 232 235 236 237 237 237 239 241 238
207 203 202 202 204 207 213 213 216 217 219 221 221 221 221 222 224 224 225 227 230 234 237 239 240 241 241 243 243 243 244 245
200 222 210 210 208 209 217 220 223 226 229 230 230 231 231 231 231 233 235 237 237 237 239 240 242 243 244 246 246 245 247 248
214 222 221 216 217 218 220 223 227 231 235 236 236 236 237 237 237 238 240 242 243 244 245 247 249 250 249 249 248 247 246 246
245 248 241 231 230 227 226 229 233 239 243 246 248 249 248 250 251 252 254 254 255 255 255 254 254 253 252 250 250 244 245 248
318 304 290 267 251 247 243 241 242 258 266 271 269 266 268 270 274 272 277 277 269 266 263 264 262 261 260 258 256 254 252 251
10 344 317 297 277 267 259 258 257 254 258 265 262 264 264 267 271 274 277 280 280 278 272 270 265 262 261 259 255 254 256 259
3 348 325 302 286 280 280 274 265 268 271 277 280 281 277 278 279 281 281 283 285 287 285 278 272 268 265 258 254 256 258 264
28 30 21 323 262 278 272 269 265 273 281 277 277 276 274 278 282 285 285 288 288 281 277 282 279 271 265 256 252 255 260 264
34 27 28 23 3 323 304 283 264 257 262 273 276 279 285 296 305 295 290 291 291 292 285 283 278 275 271 263 253 256 261 263
42 39 44 34 16 17 359 339 323 297 257 255 274 285 282 280 275 276 280 271 293 275 276 287 286 280 272 265 256 254 262 264
56 52 58 59 50 47 44 39 17 360 312 280 271 286 281 277 270 279 262 267 281 267 270 282 278 274 281 279 256 253 258 265
63 60 58 56 52 49 47 43 38 14 326 293 285 275 273 267 266 281 271 280 264 265 261 278 278 264 265 267 273 274 266 266
62 57 52 45 39 36 36 33 28 17 0 337 332 331 319 275 276 278 274 278 279 266 274 271 287 286 263 260 267 268 272 255
61 55 46 40 33 29 24 17 15 8 356 333 320 321 325 312 298 290 286 283 283 286 281 274 279 263 260 251 262 279 278 274
56 47 38 32 25 21 16 5 359 358 353 346 338 322 320 314 309 292 284 281 281 282 283 284 272 251 275 267 271 262 254 232
56 51 43 35 27 24 22 19 10 360 348 344 340 334 321 316 310 311 312 307 291 283 283 281 274 268 278 284 281 271 246 242
Wind_Speed_850mb
23 36 42 41 35 31 29 29 29 31 34 35 38 40 40 38 35 34 35 36 37 37 37 35 34 33 33 34 35 34 34 35
20 34 41 40 37 32 30 27 26 26 26 28 31 33 34 34 34 34 35 35 35 35 37 37 37 37 36 36 36 37 38 39
15 28 36 40 39 34 30 28 27 25 25 25 27 28 30 32 33 34 35 34 34 34 35 36 37 38 39 40 40 39 39 42
11 18 28 38 41 36 34 32 31 30 29 29 30 32 32 34 36 36 36 35 35 36 37 38 39 40 41 42 42 41 42 43
13 14 21 32 41 43 39 37 36 34 34 33 34 35 35 37 38 38 39 40 40 39 39 38 37 37 41 43 45 45 45 46
15 15 20 28 37 43 45 43 41 40 39 37 38 39 39 42 42 43 44 44 43 42 41 39 37 36 36 39 44 47 49 52
10 15 18 24 33 41 45 46 45 45 44 44 42 43 42 44 42 41 43 42 42 43 43 44 43 43 42 41 37 45 51 51
18 25 27 27 29 34 41 45 44 28 31 33 38 40 38 36 35 35 33 37 42 45 47 44 47 47 47 44 43 42 42 43
31 23 26 36 39 36 37 38 43 47 44 42 41 43 43 45 46 44 41 36 42 43 47 49 44 48 51 50 48 46 45 46
53 48 41 29 29 41 40 40 41 46 51 51 51 51 50 51 52 53 50 51 50 54 59 60 57 58 55 54 51 50 50 52
61 69 54 24 21 21 32 43 44 41 45 53 54 53 52 50 53 56 58 57 59 60 59 57 60 61 58 54 57 57 54 52
65 68 70 72 33 25 33 36 41 45 40 61 60 58 47 47 57 60 61 72 81 77 65 65 66 64 62 61 62 60 58 55
66 75 70 59 38 31 26 23 28 36 48 49 45 64 69 71 73 77 74 77 90 88 63 67 65 71 70 68 61 54 55 56
68 71 76 71 64 65 47 29 20 26 21 32 46 51 60 60 57 71 69 79 83 84 80 83 71 64 66 64 62 55 54 51
66 68 65 65 66 64 62 53 39 21 17 25 39 55 63 65 65 73 79 71 69 72 85 80 63 72 60 57 55 59 64 56
61 62 61 60 59 58 57 52 46 37 31 31 40 45 37 50 65 73 66 65 51 58 70 63 66 57 60 56 66 57 65 70
53 53 55 56 55 56 58 56 48 41 36 32 38 39 37 38 46 53 55 57 60 58 58 67 53 37 42 57 55 55 46 42
51 52 55 55 56 56 57 55 55 47 43 45 51 46 46 38 32 36 46 52 56 57 53 45 43 53 43 47 55 58 22 28
44 42 44 46 47 46 44 43 48 54 55 61 58 55 50 49 47 41 39 43 44 44 50 49 42 54 63 71 62 66 65 40
Wind_Direction_850mb
191 194 192 189 186 186 182 179 179 184 187 189 192 194 198 201 199 198 199 201 205 205 208 210 212 213 214 218 224 227 226 222
187 193 192 192 192 195 194 190 189 189 191 194 196 198 199 202 202 203 206 208 212 215 218 221 222 224 226 227 230 232 233 229
202 191 196 196 198 202 204 203 201 205 206 206 209 210 211 212 213 213 215 217 220 224 229 232 235 236 237 237 237 239 241 238
207 203 202 202 204 207 213 213 216 217 219 221 221 221 221 222 224 224 225 227 230 234 237 239 240 241 241 243 243 243 244 245
200 222 210 210 208 209 217 220 223 226 229 230 230 231 231 231 231 233 235 237 237 237 239 240 242 243 244 246 246 245 247 248
214 222 221 216 217 218 220 223 227 231 235 236 236 236 237 237 237 238 240 242 243 244 245 247 249 250 249 249 248 247 246 246
245 248 241 231 230 227 226 229 233 239 243 246 248 249 248 250 251 252 254 254 255 255 255 254 254 253 252 250 250 244 245 248
318 304 290 267 251 247 243 241 242 258 266 271 269 266 268 270 274 272 277 277 269 266 263 264 262 261 260 258 256 254 252 251
10 344 317 297 277 267 259 258 257 254 258 265 262 264 264 267 271 274 277 280 280 278 272 270 265 262 261 259 255 254 256 259
3 348 325 302 286 280 280 274 265 268 271 277 280 281 277 278 279 281 281 283 285 287 285 278 272 268 265 258 254 256 258 264
28 30 21 323 262 278 272 269 265 273 281 277 277 276 274 278 282 285 285 288 288 281 277 282 279 271 265 256 252 255 260 264
34 27 28 23 3 323 304 283 264 257 262 273 276 279 285 296 305 295 290 291 291 292 285 283 278 275 271 263 253 256 261 263
42 39 44 34 16 17 359 339 323 297 257 255 274 285 282 280 275 276 280 271 293 275 276 287 286 280 272 265 256 254 262 264
56 52 58 59 50 47 44 39 17 360 312 280 271 286 281 277 270 279 262 267 281 267 270 282 278 274 281 279 256 253 258 265
63 60 58 56 52 49 47 43 38 14 326 293 285 275 273 267 266 281 271 280 264 265 261 278 278 264 265 267 273 274 266 266
62 57 52 45 39 36 36 33 28 17 0 337 332 331 319 275 276 278 274 278 279 266 274 271 287 286 263 260 267 268 272 255
61 55 46 40 33 29 24 17 15 8 356 333 320 321 325 312 298 290 286 283 283 286 281 274 279 263 260 251 262 279 278 274
56 47 38 32 25 21 16 5 359 358 353 346 338 322 320 314 309 292 284 281 281 282 283 284 272 251 275 267 271 262 254 232
56 51 43 35 27 24 22 19 10 360 348 344 340 334 321 316 310 311 312 307 291 283 283 281 274 268 278 284 281 271 246 242